Find Starlink 11235

NORAD ID: 60726 Int'l Des: 2024-152 Owner: SPXS Country: US Constellation: starlink operational
LEOCIRCULAR

当前视图

正在加载3D地球...

About Starlink 11235

Starlink 11235 (NORAD 60726) is a starlink constellation satellite (v2 mini d2c) launched Aug 28, 2024 by SPXS of US. It operates in LEO, CIRCULAR orbit with a mass of 960.00 kg.

关于 Starlink 11235

正在加载描述...

即将过境

Passes for default location (London). Set your location on the main map for personalized predictions.

高度历史

Loading altitude history...

两行轨道根数

1 60726U 24152G 26173.66934116 .00000509 00000-0 90573-5 0 9993
2 60726 53.1581 318.7192 0001028 82.4565 277.6570 15.69701302105451
Epoch: Jun 22, 2026 • Age: 17 hours

当前状态

高度 365.5 km
速度 7.70 km/s
星下点 52.78°N, 5.6°E
发射日期 Aug 28, 2024
运行时间 1.8 years
类型 internet

技术详情

分类 Payload
质量 960.00 kg
干质量 910.00 kg
总质量 960.00 kg
长度 0.30 m
直径 4.10 m
跨度 29.00 m
形状 Box + pan
制造商 SPXS
平台类型 Starlink V2MD
阶段状态 In Orbit
所有者/国家 SPXS/US

Most Searched